Location: La Vergne
(36.0160°N, 86.5820°W)
Time: 04:12:40
(UTC-06:00)

Cosmos 990 Rocket - Pass Details

Date: 24 September 2017
Orbit: 747 x 769 km, 74.0° (Epoch: 16 December)

Event Time Altitude Azimuth Distance (km) Brightness Sun altitude
Rises 19:39:25 0° 338° (NNW) 3,204 7.7 -12.9°
Reaches altitude 10° 19:41:49 10° 335° (NNW) 2,273 6.9 -13.3°
Maximum altitude 19:46:53 61° 256° (WSW) 844 4.5 -14.4°
Drops below altitude 10° 19:51:54 10° 176° (S) 2,254 6.3 -15.4°
Sets 19:54:16 0° 173° (S) 3,174 7.0 -15.8°
